Regional Weather Roundup
Issued by NWS

Home | Current Version | Previous Version | Text Only | Print | Product List | Glossary Off
Versions: 1 2 3 4 5 6 7 8 9 10 11 12 13 14 15 16 17 18 19 20 21 22 23 24 25 26 27 28 29 30 31 32 33 34 35 36 37 38 39 40 41 42 43 44 45 46 47 48 49 50

000
ASUS45 KCYS 022010
RWRWY

WYOMING REGIONAL WEATHER ROUNDUP
NATIONAL WEATHER SERVICE CHEYENNE WY
200 PM MDT SUN AUG 02 2015

NOTE:  "FAIR" INDICATES FEW OR NO CLOUDS BELOW 12,000 FEET
WITH NO SIGNIFICANT WEATHER AND/OR OBSTRUCTIONS TO VISIBILITY.

WYZ001-022100-
YELLOWSTONE NATIONAL PARK

CITY           SKY/WX    TMP DP  RH WIND       PRES   REMARKS
LK YELLOWSTONE   N/A     75  39  27 E7        30.32F
W YELLOWSTONE  NOT AVBL

$$
WYZ002>013-054>058-071-098>099-022100-
NORTHERN WYOMING

CITY           SKY/WX    TMP DP  RH WIND       PRES   REMARKS
JACKSON        SUNNY     82  36  18 SE6       30.19F
CODY           FAIR      82  43  24 N15G21    30.11R
GREYBULL       FAIR      96  26   8 N6        29.98F HX  90
WORLAND        FAIR      94  33  11 NE8       30.00F
SHERIDAN       FAIR      87  40  19 W13       30.04S
BUFFALO        FAIR      87  39  18 N18G26    30.10R
GILLETTE       FAIR      89  41  18 N9        30.03S
HULETT         FAIR      82  50  32 E10       30.06S
NEWCASTLE      FAIR      91  34  13 MISG      30.00S

$$
WYZ014>020-022>026-101>103-022100-
CENTRAL WYOMING

CITY           SKY/WX    TMP DP  RH WIND       PRES   REMARKS
BIG PINEY      FAIR      84  27  12 MISG      30.22F
PINEDALE       FAIR      84  27  12 NE3       30.22F
DUBOIS         FAIR      82  25  12 NE7       30.23F
LANDER         FAIR      92  26   9 N8        30.09F
RIVERTON       FAIR      91  26   9 E10       30.10F
CASPER         FAIR      92  20   7 CALM      30.07F
DOUGLAS        FAIR      96  29   9 VRB3      30.04F HX  90

$$
WYZ021-027>030-104>119-022100-
SOUTHERN WYOMING

CITY           SKY/WX    TMP DP  RH WIND       PRES   REMARKS
EVANSTON       FAIR      87  26  11 N14G20    30.19F
KEMMERER       FAIR     N/A N/A N/A E5        30.22F
FORT BRIDGER   CLEAR     88  25  10 E8        30.22F
ROCK SPRINGS   FAIR      86  27  11 VRB5      30.17F
DIXON          FAIR      88  34  14 CALM      30.18F
RAWLINS        FAIR      86  26  11 VRB6      30.20F
SARATOGA       FAIR      86  27  11 CALM      30.21F
LARAMIE        PTSUNNY   86  34  15 NE13G20   30.22F
CHEYENNE       TSTM      84  46  26 S15G23    30.16S
TORRINGTON     FAIR      86  48  26 NE18      30.00R
PINE BLUFFS    FAIR      90  45  20 S17       30.07S

$$


USA.gov is the U.S. government's official web portal to all federal, state and local government web resources and services.